TimeAKDT,TemperatureF,Dew PointF,Humidity,Sea Level PressureIn,VisibilityMPH,Wind Direction,Wind SpeedMPH,Gust SpeedMPH,PrecipitationIn,Events,Conditions,WindDirDegrees,DateUTC
12:53 AM,17.1,6.1,62,29.48,10.0,Calm,Calm,-,N/A,,Overcast,0,2014-03-10 08:53:00
1:53 AM,18.0,3.9,54,29.49,9.0,North,9.2,-,0.00,Snow,Light Snow,10,2014-03-10 09:53:00
2:53 AM,16.0,3.0,57,29.49,10.0,NW,6.9,-,0.00,,Overcast,320,2014-03-10 10:53:00
3:53 AM,18.0,5.0,57,29.47,10.0,North,4.6,-,N/A,,Overcast,360,2014-03-10 11:53:00
4:53 AM,19.0,6.1,57,29.47,10.0,North,4.6,-,N/A,,Overcast,360,2014-03-10 12:53:00
5:53 AM,19.0,5.0,54,29.47,10.0,NNW,8.1,-,N/A,,Overcast,340,2014-03-10 13:53:00
6:53 AM,19.0,5.0,54,29.44,10.0,NNW,8.1,-,N/A,,Mostly Cloudy,340,2014-03-10 14:53:00
7:53 AM,19.0,5.0,54,29.43,10.0,NNW,9.2,-,N/A,,Overcast,340,2014-03-10 15:53:00
8:53 AM,19.0,7.0,59,29.41,10.0,NNE,6.9,-,N/A,,Overcast,20,2014-03-10 16:53:00
9:53 AM,19.0,10.9,71,29.37,10.0,NNW,10.4,16.1,N/A,,Overcast,340,2014-03-10 17:53:00
10:53 AM,19.0,12.0,74,29.37,10.0,NNW,9.2,-,N/A,,Overcast,340,2014-03-10 18:53:00
11:53 AM,19.9,12.9,74,29.32,10.0,North,8.1,17.3,N/A,,Overcast,360,2014-03-10 19:53:00
12:53 PM,19.4,13.1,76,29.30,10.0,NNW,8.1,-,N/A,,Overcast,340,2014-03-10 20:53:00
1:53 PM,19.4,14.0,80,29.26,10.0,North,-9999.0,-,N/A,,Overcast,0,2014-03-10 21:53:00
2:53 PM,27.0,16.0,63,29.22,10.0,NNW,5.8,-,N/A,,Overcast,340,2014-03-10 22:53:00
3:53 PM,28.9,17.1,61,29.16,10.0,North,10.4,-,N/A,,Overcast,350,2014-03-10 23:53:00
4:53 PM,30.0,18.0,61,29.11,10.0,Calm,Calm,-,N/A,,Overcast,0,2014-03-11 00:53:00
5:53 PM,33.1,21.0,61,29.05,10.0,NNW,3.5,-,N/A,,Overcast,330,2014-03-11 01:53:00
6:53 PM,33.1,24.1,70,28.99,10.0,Calm,Calm,-,N/A,,Overcast,0,2014-03-11 02:53:00
7:53 PM,39.0,27.0,62,28.95,10.0,Variable,3.5,17.3,N/A,,Overcast,0,2014-03-11 03:53:00
8:53 PM,34.0,25.0,70,28.93,10.0,WSW,12.7,18.4,N/A,,Overcast,250,2014-03-11 04:53:00
9:53 PM,30.0,23.0,75,28.97,10.0,SW,9.2,-,0.00,Snow,Light Snow,220,2014-03-11 05:53:00
10:53 PM,30.0,23.0,75,29.00,10.0,Calm,Calm,-,0.00,,Overcast,0,2014-03-11 06:53:00
11:53 PM,28.9,23.0,78,29.03,10.0,Calm,Calm,-,N/A,,Overcast,0,2014-03-11 07:53:00